Eureka, Nunavut

11:16 PM CDT on August 18, 2017 (GMT -0500)
Eureka

Weather History for CWEU - May, 2013

Change the Weather History Date:

Thursday, May 23, 2013

  Actual Average Record
Temperature  
Mean Temperature 21 °F -  
Max Temperature 25 °F 35 °F 35 °F (2011)
Min Temperature 17 °F 25 °F 6 °F (2001)
Degree Days  
Heating Degree Days 44    
Moisture  
Dew Point 16 °F    
Average Humidity 81    
Maximum Humidity 93    
Minimum Humidity 68    
Precipitation  
Precipitation 0.02 in 0.01 in - ()
Sea Level Pressure  
Sea Level Pressure 30.23 in    
Wind  
Wind Speed 8 mph ()    
Max Wind Speed 21 mph    
Max Gust Speed 23 mph    
Visibility 9.1 miles    
Events Snow    
Averages and records for this station are not official NWS values.
T = Trace of Precipitation, MM = Missing Value Source: Averaged Metar Reports

Daily Weather History Graph

Daily Weather History Graph

Search for Another Location

Airport or City:

Trip Planner

Search our weather history database for the weather conditions in past years. The results will help you decide how hot, cold, wet, or windy it might be!

Date:

Astronomy

Dec. 31, 1969 Rise Set
Actual Time Sun does not set Sun does not set
Civil Twilight Sun does not set Sun does not set
Nautical Twilight Sun does not set Sun does not set
Astronomical Twilight Sun does not set Sun does not set
Moon No Moon Rise No Moon Set
Length of Visible Light 24h 00m
Length of Day
24h 00m
Waxing Gibbous, 97% of the Moon is Illuminated
May 23
Waxing Gibbous
May 24
Full
May 31
Last Quarter
Jun 8
New
Jun 16
First Quarter

Hourly Weather History & Observations

Time (CDT) Temp. Windchill Dew Point Humidity Pressure Visibility Wind Dir Wind Speed Gust Speed Precip Events Conditions
1:00 AM 18 °F - 13 °F 70% 30.25 in 15 mi South 11.5 mph - -   Overcast
1:00 AM 17.6 °F 5.7 °F 12.2 °F 79% 30.25 in 15.0 mi South 10.4 mph - N/A   Overcast
1:42 AM - - - N/A% - 7.0 mi South 10.4 mph - N/A   Unknown
2:00 AM 17.6 °F 7.3 °F 14.0 °F 86% 30.23 in 7.0 mi South 8.1 mph - N/A Snow Light Snow
2:29 AM - - - N/A% - 2.0 mi South 10.4 mph - N/A   Unknown
2:41 AM - - - N/A% - 1.0 mi South 8.1 mph - N/A   Unknown
3:00 AM 17.6 °F 5.7 °F 14.0 °F 86% 30.22 in 1.0 mi South 10.4 mph - N/A Snow Light Snow
4:00 AM 17.6 °F 7.3 °F 15.8 °F 93% 30.22 in 0.8 mi South 8.1 mph - N/A Snow Light Snow
5:00 AM 17.6 °F 9.3 °F 15.8 °F 93% 30.21 in 0.8 mi South 5.8 mph - N/A Snow Light Snow
5:39 AM - - - N/A% - 1.0 mi South 8.1 mph - N/A   Unknown
6:00 AM 17.6 °F 9.3 °F 14.0 °F 86% 30.20 in 3.0 mi South 5.8 mph - N/A Snow Light Snow
7:00 AM 18 °F - 14 °F 77% 30.21 in 15 mi South 6.9 mph - - Snow Light Snow
7:00 AM 17.6 °F 9.3 °F 14.0 °F 86% 30.21 in 15.0 mi South 5.8 mph - N/A Snow Light Snow
8:00 AM 19.4 °F 10.4 °F 15.8 °F 86% 30.21 in 5.0 mi South 6.9 mph - N/A Snow Light Snow
9:00 AM 19.4 °F 14.3 °F 15.8 °F 86% 30.21 in 7.0 mi SSE 3.5 mph - N/A Snow Light Snow
10:00 AM 19.4 °F - 15.8 °F 86% 30.21 in 7.0 mi Calm Calm - N/A Snow Light Snow
11:00 AM 21.2 °F - 15.8 °F 80% 30.21 in 10.0 mi Calm Calm - N/A Snow Light Snow
12:00 PM 23.0 °F - 17.6 °F 80% 30.21 in 15.0 mi West 2.3 mph - N/A Snow Light Snow
12:22 PM - - - N/A% - 15.0 mi NW 3.5 mph - N/A   Mostly Cloudy
1:00 PM 22 °F - 18 °F 79% 30.22 in 15 mi NNW 2.3 mph - - Snow Light Snow
1:00 PM 23.0 °F 17.0 °F 17.6 °F 80% 30.22 in 15.0 mi NNW 4.6 mph - N/A   Mostly Cloudy
2:00 PM 23.0 °F - 19.4 °F 86% 30.21 in 15.0 mi North 2.3 mph - N/A   Mostly Cloudy
3:00 PM 23.0 °F 14.7 °F 19.4 °F 86% 30.22 in 15.0 mi NNW 6.9 mph - N/A   Mostly Cloudy
4:00 PM 24.8 °F 14.0 °F 19.4 °F 80% 30.22 in 15.0 mi North 11.5 mph - N/A   Mostly Cloudy
4:54 PM - - - N/A% - 10.0 mi NNE 13.8 mph - N/A   Unknown
5:00 PM 24.8 °F 13.4 °F 19.4 °F 80% 30.23 in 10.0 mi NNE 12.7 mph - N/A Snow Light Snow
6:00 PM 23.0 °F 10.1 °F 17.6 °F 80% 30.23 in 8.0 mi NNE 15.0 mph - N/A Snow Light Snow
6:35 PM - - - N/A% - 6.0 mi NE 13.8 mph - N/A   Unknown
6:50 PM - - - N/A% - 8.0 mi NE 17.3 mph - N/A   Unknown
7:00 PM 22 °F - 17 °F 71% 30.25 in 10 mi NNE 18.4 mph - - Snow Light Snow
7:00 PM 23.0 °F 8.7 °F 15.8 °F 74% 30.25 in 10.0 mi NNE 18.4 mph - N/A Snow Light Snow
8:00 PM 21.2 °F 8.3 °F 15.8 °F 80% 30.25 in 8.0 mi NE 13.8 mph - N/A Snow Light Snow
8:47 PM - - - N/A% - 10.0 mi NNE 20.7 mph - N/A   Unknown
9:00 PM 19.4 °F 3.2 °F 14.0 °F 80% 30.27 in 10.0 mi NNE 20.7 mph - N/A Snow Low Drifting Snow
10:00 PM 19.4 °F 4.5 °F 10.4 °F 68% 30.27 in 10.0 mi NNE 17.3 mph 23.0 mph N/A Snow Low Drifting Snow